Probability
0 0 0 0 0 0 0 0 0 0 0 0 0 0 0 0 0 0 0 0 0 0 0 0 0 0 0 0 0 0 0 0 0 1 3 4 4 4 4 3 2 2 1 0
0 0 0 0 0 0 0 0 0 0 0 0 0 0 0 0 0 0 0 0 0 0 0 0 0 0 0 0 0 0 0 0 0 1 3 4 4 3 3 2 1 1 0 0
0 0 0 0 0 0 0 0 0 0 0 0 0 0 0 0 0 0 0 0 0 0 0 0 0 0 0 0 0 0 0 0 0 1 3 4 3 2 1 1 1 0 0 1
0 0 0 0 0 0 0 0 0 0 0 0 0 0 0 0 0 0 0 0 0 0 0 0 0 0 0 0 0 0 0 0 0 1 2 3 2 1 0 1 1 1 1 2
0 0 0 0 0 0 0 0 0 0 0 0 0 0 0 0 0 0 0 0 0 0 0 0 0 0 0 0 0 0 0 0 0 0 1 2 1 1 0 1 2 2 3 3
0 0 0 0 0 0 0 0 0 0 0 0 0 0 0 0 0 0 0 0 0 0 0 0 0 0 0 0 0 0 0 0 0 0 0 0 0 0 0 0 1 2 3 3
0 0 0 0 0 0 0 0 0 0 0 0 0 0 0 0 0 0 0 0 0 0 0 0 0 0 0 0 0 0 0 0 0 0 0 0 0 0 0 0 0 1 2 2
0 0 0 0 0 0 0 0 0 0 0 0 0 0 0 0 0 0 0 0 0 0 0 0 0 0 0 0 0 0 0 0 0 0 0 0 0 0 0 0 0 0 1 1
0 0 0 0 0 0 0 0 0 0 0 0 0 0 0 0 0 0 0 0 0 0 0 0 0 0 0 0 0 0 0 0 0 0 0 0 0 0 0 0 0 0 0 1
0 0 0 0 0 0 0 0 0 0 0 0 0 0 0 0 0 0 0 0 0 0 0 0 0 0 0 0 0 0 0 0 0 0 0 0 0 0 0 0 0 0 0 1
0 0 0 0 0 0 0 0 0 0 0 0 0 0 0 0 0 0 0 0 0 0 0 0 0 0 0 0 0 0 0 0 0 0 0 0 0 0 0 0 0 0 0 0
0 0 0 0 0 0 0 0 0 0 0 0 0 0 0 0 0 0 0 0 0 0 0 0 0 0 0 0 0 0 0 0 0 0 0 0 0 0 0 0 0 0 0 0
0 0 0 0 0 0 0 0 0 0 0 0 0 0 0 0 0 0 0 0 0 0 0 0 0 0 0 0 0 0 0 0 0 0 0 0 0 0 0 0 0 0 0 0
0 0 0 0 0 0 0 0 0 0 0 0 0 0 0 0 0 0 0 0 0 0 0 0 0 0 0 0 0 0 0 0 0 0 0 0 0 0 0 0 0 0 0 0
0 0 0 0 0 0 0 0 0 0 0 0 0 0 0 0 0 0 0 0 0 0 0 0 0 0 0 0 0 0 0 0 0 0 0 0 0 0 1 0 0 0 0 0
0 0 0 0 0 0 0 0 0 0 0 0 0 0 0 0 0 0 0 0 0 0 0 0 0 0 0 0 0 0 0 0 0 0 0 0 0 0 0 0 1 1 1 0
0 0 0 0 0 0 0 0 0 0 0 0 0 0 0 0 0 0 0 0 0 0 0 0 0 0 0 0 0 0 0 0 0 0 0 0 0 0 0 0 1 2 2 1
0 0 0 0 0 0 0 0 0 0 0 0 0 0 0 0 0 0 0 0 0 0 0 0 0 0 0 0 0 0 0 0 0 0 0 0 0 0 0 0 0 1 2 2
0 0 0 0 0 0 0 0 0 0 0 0 0 0 0 0 0 0 0 0 0 0 0 0 0 0 0 0 0 0 0 0 0 0 0 0 0 0 0 0 0 0 1 1
0 0 0 0 0 0 0 0 0 0 0 0 0 0 0 0 0 0 0 0 0 0 0 0 0 0 0 0 0 0 0 0 0 0 0 0 0 0 0 0 0 0 0 0
0 0 0 0 0 0 0 0 0 0 0 0 0 0 0 0 0 0 0 0 0 0 0 0 0 0 0 0 0 0 0 0 0 0 0 0 0 0 0 0 0 0 0 0
0 0 0 0 0 0 0 0 0 0 0 0 0 0 0 0 0 0 0 0 0 0 0 0 0 0 0 0 0 0 0 0 0 0 0 0 0 0 0 0 0 0 0 0
0 0 0 0 0 0 0 0 0 0 0 0 0 0 0 0 0 0 0 0 0 0 0 0 0 0 0 0 0 0 0 0 0 0 0 0 0 0 0 0 0 0 0 0
0 0 0 0 0 0 0 0 0 0 0 0 0 0 0 0 0 0 0 0 0 0 0 0 0 0 0 0 0 0 0 0 0 0 0 0 0 0 0 0 0 0 0 0
0 0 0 0 0 0 0 0 0 0 0 0 0 0 0 0 0 0 0 0 0 0 0 0 0 0 0 0 0 0 0 0 0 0 0 0 0 0 0 0 0 0 0 0
0 0 0 0 0 0 0 0 0 0 0 0 0 0 0 0 0 0 0 0 0 0 0 0 0 0 0 0 0 0 0 0 0 0 0 0 0 0 0 0 0 0 0 0
Wind_Speed
3 4 7 8 10 8 7 8 10 8 3 6 10 12 11 8 8 9 8 7 7 6 5 4 3 2 1 1 2 2 3 3 3 3 4 4 4 4 4 3 4 4 4 4
4 8 8 5 5 7 8 10 10 6 3 5 8 13 12 10 10 9 9 8 7 6 4 3 2 2 1 1 2 2 3 3 4 3 3 3 3 3 3 3 4 4 4 4
7 3 3 5 5 7 9 10 10 8 5 5 8 11 10 7 7 8 8 8 7 6 4 2 2 1 1 1 1 1 2 4 4 4 3 3 3 3 3 4 3 4 4 4
6 4 4 5 7 7 9 7 8 8 7 6 5 9 8 7 7 7 7 6 4 3 3 2 2 2 2 2 1 1 2 2 3 4 4 5 4 4 4 3 3 3 4 4
4 3 4 6 6 7 5 3 5 7 8 8 8 9 7 4 7 7 6 4 3 2 2 2 1 2 2 1 1 1 1 2 2 3 5 5 4 4 3 3 4 4 4 4
4 3 4 4 2 4 2 1 2 4 5 9 9 10 8 5 7 5 4 3 2 2 1 1 1 1 1 1 1 1 1 1 2 2 4 5 5 4 4 4 4 3 3 3
3 3 2 2 2 3 4 3 2 4 6 7 4 8 8 3 3 3 2 2 1 1 1 1 2 2 2 2 2 1 0 0 1 2 3 4 4 4 5 4 4 3 3 3
3 4 3 2 4 4 6 6 6 6 6 4 4 9 5 1 1 1 2 2 1 1 1 1 1 1 2 2 2 2 1 1 0 1 2 2 3 2 2 3 3 4 3 3
4 4 2 2 3 4 5 6 5 4 3 6 7 6 5 2 3 2 1 2 1 1 1 1 1 2 2 2 2 2 1 2 1 0 1 1 1 2 2 3 3 3 3 3
3 4 3 2 2 2 4 3 4 6 5 8 7 7 5 4 5 3 2 2 2 2 2 2 2 2 2 2 2 1 1 1 1 1 1 0 1 1 1 2 2 3 3 3
3 4 3 2 5 5 4 4 4 4 4 6 7 5 1 3 2 3 3 3 3 3 3 2 2 2 2 2 2 2 2 2 1 1 1 1 1 1 1 1 2 2 2 3
2 3 4 5 3 4 5 6 6 6 6 6 6 6 1 2 2 3 3 3 3 3 3 3 2 2 2 2 2 2 2 2 2 1 1 1 1 1 1 1 1 1 2 2
2 3 3 4 4 2 4 4 5 5 4 6 8 7 2 1 2 3 4 4 3 3 3 3 2 2 2 2 2 2 2 2 2 2 1 1 1 1 1 1 1 1 1 1
1 4 7 10 6 3 6 6 7 7 7 8 12 12 7 6 6 6 5 5 4 4 3 3 3 3 3 2 2 2 2 2 2 2 1 1 1 1 1 1 1 1 1 1
2 5 6 8 8 7 9 10 10 12 12 12 13 14 12 10 8 8 7 6 5 5 4 4 4 4 3 3 3 2 2 2 2 2 2 2 2 2 1 1 1 1 0 1
3 5 4 7 7 8 11 12 14 14 13 14 15 16 12 10 8 8 7 6 6 6 5 5 5 4 4 4 3 3 2 2 2 2 2 2 2 2 2 1 1 0 1 1
4 5 5 7 6 6 11 12 14 11 11 12 15 14 8 7 7 7 7 6 6 6 6 6 5 5 4 4 3 3 2 2 1 1 2 2 2 2 2 2 1 1 1 1
7 6 4 4 3 12 7 2 7 10 11 11 11 10 9 8 7 6 6 6 6 6 6 6 5 5 4 3 2 2 1 1 1 1 1 2 2 2 2 2 2 2 1 1
7 7 5 4 8 11 8 4 5 8 10 9 10 11 9 5 5 5 2 2 4 5 5 5 4 4 3 2 2 1 1 1 1 1 2 2 2 2 2 2 2 2 2 2
2 4 5 5 8 10 6 1 2 3 9 5 6 8 6 2 5 3 2 4 5 5 4 4 3 3 2 2 1 1 1 1 2 2 2 3 2 2 2 2 2 2 2 2
4 4 7 9 9 10 5 2 4 6 6 1 3 5 4 5 5 3 4 4 4 4 4 3 3 2 2 2 1 1 1 2 2 2 2 2 2 2 2 2 2 2 1 1
8 7 8 7 9 11 3 5 7 5 3 2 3 3 4 4 4 4 4 4 4 4 4 3 2 3 2 2 1 1 2 3 2 2 2 2 2 2 2 2 2 1 1 1
9 8 6 9 9 3 4 6 4 2 3 3 3 4 3 4 5 4 4 3 3 3 3 3 2 3 3 3 2 2 3 3 2 2 3 3 3 2 2 2 2 1 1 1
6 4 6 8 10 7 6 5 4 4 4 4 4 3 4 4 5 5 4 3 3 3 3 2 2 2 3 3 3 3 3 3 2 2 3 2 2 2 2 2 2 1 1 1
6 5 6 9 8 6 6 6 6 4 3 3 4 3 4 4 5 4 3 3 3 3 3 2 2 2 3 3 4 3 3 2 2 2 2 2 2 2 2 2 2 2 2 2
6 7 8 9 5 5 4 2 3 4 4 4 4 4 3 3 4 4 3 3 2 3 2 2 2 3 3 3 4 4 3 2 2 2 2 2 2 2 2 2 2 3 4 4
Wind_Direction
174 201 217 219 222 241 239 242 253 262 250 245 249 261 264 254 247 249 248 248 252 258 271 278 281 278 243 220 200 194 188 187 186 190 192 191 191 187 186 188 186 189 188 191
185 230 240 237 230 234 240 248 257 267 247 252 265 266 264 253 245 246 248 247 249 255 262 268 281 289 274 240 212 197 203 195 192 200 200 201 191 191 189 185 189 191 190 192
212 235 230 212 221 232 240 244 251 259 276 247 272 265 244 233 239 246 246 249 250 249 254 266 287 299 313 305 258 219 217 207 198 193 186 175 175 176 184 191 192 194 196 195
235 243 221 221 231 232 248 247 249 252 256 253 248 275 251 236 244 241 239 239 245 248 250 263 273 291 300 294 284 253 229 218 199 190 188 183 190 196 199 196 194 190 194 196
229 234 229 234 241 226 246 254 244 249 250 257 234 253 263 227 245 241 226 221 235 241 249 255 266 279 293 314 309 269 218 204 203 199 194 191 199 205 191 187 189 187 189 192
252 258 253 249 258 217 188 190 227 229 232 246 229 232 261 226 236 239 218 219 247 270 275 300 322 306 311 332 331 320 228 202 194 206 208 199 199 196 187 186 189 190 188 194
259 237 234 234 187 180 193 196 226 224 222 240 197 228 250 250 236 236 245 260 289 323 326 346 348 339 337 340 342 324 285 234 202 199 217 215 210 200 198 193 194 193 196 202
247 246 212 220 225 213 211 216 220 239 245 254 212 235 248 239 213 241 285 278 276 316 320 316 315 317 320 327 339 341 336 329 305 199 214 223 216 210 208 204 198 203 207 208
235 258 322 291 286 223 201 218 242 253 269 261 239 245 260 208 239 240 268 280 289 301 299 298 303 309 313 313 318 318 324 335 336 274 188 206 216 216 215 220 214 213 213 210
226 257 274 298 259 248 254 213 198 210 228 247 250 245 244 226 233 229 247 282 293 292 298 300 306 315 317 313 310 317 315 325 346 360 17 94 239 248 235 219 226 223 216 212
229 234 262 245 221 226 204 210 223 230 243 246 256 247 228 241 245 246 262 290 298 301 302 305 318 326 324 325 322 318 314 327 346 358 4 24 3 284 241 229 229 234 228 215
220 231 250 254 271 304 255 231 215 225 236 241 258 263 54 270 295 291 297 306 307 306 302 305 312 318 321 329 335 330 327 325 325 330 354 8 358 342 297 255 253 236 234 227
197 208 252 258 216 216 243 244 241 247 239 232 241 255 87 327 303 303 302 306 305 305 306 308 309 305 303 308 317 323 325 326 329 330 330 354 342 327 304 300 274 234 221 225
268 232 237 249 269 240 244 246 236 227 235 244 246 262 269 280 288 296 300 301 302 302 298 305 306 304 301 300 307 314 317 319 322 325 325 321 314 303 294 301 302 263 217 208
219 242 253 272 275 259 253 249 237 234 242 246 258 264 272 281 285 290 296 298 297 297 298 300 300 303 298 297 299 303 307 310 311 311 316 319 317 308 306 305 309 306 310 220
213 237 255 273 273 264 261 252 242 242 247 252 261 268 271 280 276 277 280 278 282 291 295 296 299 301 296 292 294 294 294 298 298 299 306 315 320 330 322 310 296 307 331 327
208 204 237 262 284 280 254 239 231 236 236 239 249 261 282 279 277 278 278 273 277 288 295 295 291 290 290 286 283 280 287 296 296 301 312 321 325 327 328 327 316 310 303 301
212 215 230 253 251 246 256 222 225 238 247 243 256 270 273 274 282 280 279 277 285 294 297 297 295 294 294 294 290 291 299 293 291 299 310 318 321 319 325 324 315 297 290 281
218 207 209 218 244 265 273 238 218 236 258 244 249 262 274 294 282 268 278 302 304 307 306 303 299 296 298 296 301 300 297 305 298 296 302 305 301 299 306 307 306 304 295 285
189 199 205 220 240 252 263 217 198 228 260 238 242 260 272 259 259 276 14 333 323 325 323 319 314 309 304 312 319 305 303 301 293 299 303 303 292 280 281 285 295 301 296 285
179 197 214 229 246 260 268 189 169 218 262 264 230 248 240 237 266 326 331 322 325 330 335 334 323 314 313 321 312 283 296 290 300 309 305 300 294 288 286 288 294 299 294 294
198 200 211 214 232 248 178 167 207 255 320 286 267 260 248 258 286 299 307 313 321 328 334 336 328 322 331 332 301 290 295 310 321 314 305 305 308 304 295 290 297 294 280 281
216 214 212 214 233 270 185 219 247 275 265 276 276 269 254 265 273 283 291 301 316 323 325 330 323 325 332 331 315 297 311 326 323 315 307 309 315 310 301 281 277 280 275 272
230 234 231 246 255 255 248 250 257 254 262 281 276 267 260 265 274 279 283 300 314 324 325 328 326 322 321 323 322 315 319 319 312 300 301 305 304 306 307 289 274 267 264 271
231 202 224 246 258 267 250 241 248 256 263 271 278 274 265 262 268 271 278 289 300 312 320 318 308 306 307 316 325 330 327 323 311 304 301 301 296 298 302 298 286 279 279 279
216 210 218 240 234 233 248 224 234 241 254 261 268 281 281 263 266 273 271 279 290 296 305 307 307 307 310 318 321 325 326 320 305 299 302 300 300 304 302 301 303 296 290 296